Location: Bletchingley
(51.2333°N, 0.1000°W)
Time: 04:00:35
(UTC+00:00)

MetOp-A - Pass Details

Date: 18 September 2020
Orbit: 820 x 821 km, 98.5° (Epoch: 19 October)

Event Time Altitude Azimuth Distance (km) Brightness Sun altitude
Exits shadow 20:03:47 11° 175° (S) 2,370 6.2 -18.4°
Maximum altitude 20:08:59 66° 257° (WSW) 894 4.4 -19.1°
Drops below altitude 10° 20:14:21 10° 341° (NNW) 2,430 7.3 -19.9°
Sets 20:16:44 0° 344° (NNW) 3,367 8.0 -20.2°
